LHA1617 LSZR-EDDN

Flight info

Callsign LHA1617
Flight time 0h 41m
Altitude 23000
Route ALAGO Z1 SUDEN/N0320F230 Z79 GUPIN N869 LETKU LETK1V
Aircraft DH8D/M-SDE1E2FGIJ1RWYZ/S

Departure

Time 2026-05-05 07:50
Airport Sankt Gallen Altenrhein Airport (LSZR)

Arrival

Time 2026-05-05 08:32
Airport Nuremberg Airport (EDDN)
Time Latitude Longitude Altitude Speed Heading
2026-05-05 07:34 47.48714 9.55253 1315 ft 0 kts
2026-05-05 07:46 47.48715 9.55253 1314 ft 1 kts
2026-05-05 07:47 47.48732 9.55266 1315 ft 3 kts 60°
2026-05-05 07:47 47.48725 9.55316 1315 ft 6 kts 111°
2026-05-05 07:47 47.48694 9.55338 1315 ft 0 kts 185°
2026-05-05 07:48 47.48668 9.55335 1316 ft 7 kts 185°
2026-05-05 07:48 47.48599 9.55315 1316 ft 11 kts 221°
2026-05-05 07:48 47.48596 9.55193 1313 ft 13 kts 278°
2026-05-05 07:48 47.48610 9.55056 1313 ft 10 kts 277°
2026-05-05 07:49 47.48606 9.54973 1312 ft 6 kts 291°
2026-05-05 07:49 47.48618 9.54971 1312 ft 0 kts 90°
2026-05-05 07:50 47.48556 9.55569 1318 ft 111 kts 97°
2026-05-05 07:50 47.48395 9.56941 1666 ft 145 kts 104°
2026-05-05 07:50 47.48202 9.58428 2423 ft 153 kts 92°
2026-05-05 07:50 47.48619 9.59858 3051 ft 172 kts 40°
2026-05-05 07:51 47.49793 9.60234 3698 ft 186 kts 346°
2026-05-05 07:51 47.50970 9.59514 4534 ft 189 kts 336°
2026-05-05 07:51 47.52180 9.58706 5354 ft 193 kts 337°
2026-05-05 07:51 47.53395 9.57917 6226 ft 194 kts 338°
2026-05-05 07:52 47.54622 9.57137 7038 ft 198 kts 338°
2026-05-05 07:52 47.55892 9.56343 7863 ft 201 kts 339°
2026-05-05 07:52 47.57179 9.55547 8668 ft 204 kts 339°
2026-05-05 07:52 47.58493 9.54742 9427 ft 207 kts 339°
2026-05-05 07:53 47.59829 9.53932 10152 ft 211 kts 340°
2026-05-05 07:53 47.61239 9.53512 10823 ft 214 kts
2026-05-05 07:53 47.62743 9.53566 11485 ft 219 kts
2026-05-05 07:53 47.64266 9.53647 12158 ft 223 kts
2026-05-05 07:54 47.65852 9.53730 12595 ft 242 kts
2026-05-05 07:54 47.67644 9.53787 12828 ft 265 kts 358°
2026-05-05 07:54 47.69451 9.53115 13347 ft 271 kts 336°
2026-05-05 07:54 47.71196 9.51997 13915 ft 277 kts 335°
2026-05-05 07:55 47.72969 9.50854 14544 ft 280 kts 335°
2026-05-05 07:55 47.74739 9.49715 15146 ft 282 kts 335°
2026-05-05 07:55 47.76554 9.48550 15713 ft 285 kts 335°
2026-05-05 07:55 47.78363 9.47392 16269 ft 288 kts 335°
2026-05-05 07:56 47.80270 9.46404 16785 ft 291 kts 349°
2026-05-05 07:56 47.82278 9.46247 17296 ft 294 kts
2026-05-05 07:56 47.84312 9.46258 17818 ft 295 kts
2026-05-05 07:56 47.86371 9.46268 18286 ft 298 kts
2026-05-05 07:57 47.88466 9.46276 18806 ft 299 kts
2026-05-05 07:57 47.90549 9.46281 19241 ft 302 kts
2026-05-05 07:57 47.92646 9.46283 19667 ft 305 kts 360°
2026-05-05 07:57 47.94814 9.46282 19826 ft 317 kts 360°
2026-05-05 07:58 47.97042 9.46279 19868 ft 326 kts 360°
2026-05-05 07:58 47.99317 9.46274 19871 ft 327 kts 360°
2026-05-05 07:58 48.01593 9.46267 19868 ft 327 kts 360°
2026-05-05 07:58 48.03876 9.46260 19865 ft 327 kts 360°
2026-05-05 07:59 48.06147 9.46254 19863 ft 326 kts 360°
2026-05-05 07:59 48.08418 9.46248 19864 ft 325 kts 360°
2026-05-05 07:59 48.10675 9.46242 19864 ft 324 kts 359°
2026-05-05 07:59 48.12940 9.46236 19863 ft 323 kts 360°
2026-05-05 08:00 48.15176 9.46230 19867 ft 322 kts 360°
2026-05-05 08:00 48.17418 9.46225 19867 ft 322 kts 360°
2026-05-05 08:00 48.19638 9.46225 19865 ft 321 kts
2026-05-05 08:00 48.21863 9.46227 19865 ft 321 kts 360°
2026-05-05 08:01 48.24118 9.46230 19865 ft 321 kts 360°
2026-05-05 08:01 48.26318 9.46232 19869 ft 321 kts 360°
2026-05-05 08:01 48.28544 9.46234 19866 ft 320 kts 360°
2026-05-05 08:01 48.30792 9.46236 19866 ft 320 kts 360°
2026-05-05 08:02 48.32992 9.46238 19868 ft 320 kts 360°
2026-05-05 08:02 48.35248 9.46240 19865 ft 320 kts 360°
2026-05-05 08:02 48.37457 9.46242 19861 ft 320 kts 360°
2026-05-05 08:02 48.39691 9.46243 19860 ft 320 kts 360°
2026-05-05 08:03 48.41898 9.46245 19860 ft 320 kts 360°
2026-05-05 08:03 48.44131 9.46247 19857 ft 320 kts 360°
2026-05-05 08:03 48.46351 9.46249 19855 ft 321 kts 360°
2026-05-05 08:03 48.48577 9.46250 19857 ft 320 kts 360°
2026-05-05 08:04 48.50817 9.46252 19859 ft 320 kts 360°
2026-05-05 08:04 48.53015 9.46537 19834 ft 320 kts 16°
2026-05-05 08:04 48.55024 9.47883 19867 ft 317 kts 29°
2026-05-05 08:04 48.56964 9.49446 19860 ft 317 kts 30°
2026-05-05 08:05 48.58931 9.51041 19858 ft 318 kts 30°
2026-05-05 08:05 48.60852 9.52600 19856 ft 318 kts 30°
2026-05-05 08:05 48.62798 9.54176 19858 ft 318 kts 30°
2026-05-05 08:05 48.64756 9.55761 19856 ft 318 kts 30°
2026-05-05 08:06 48.66685 9.57324 19857 ft 318 kts 30°
2026-05-05 08:06 48.68651 9.58915 19857 ft 318 kts 30°
2026-05-05 08:06 48.70578 9.60476 19852 ft 318 kts 30°
2026-05-05 08:06 48.72548 9.62071 19856 ft 318 kts 30°
2026-05-05 08:07 48.74482 9.63641 20288 ft 314 kts 30°
2026-05-05 08:07 48.76380 9.65183 20820 ft 310 kts 30°
2026-05-05 08:07 48.78289 9.66735 21202 ft 310 kts 29°
2026-05-05 08:07 48.80177 9.68271 21576 ft 311 kts 29°
2026-05-05 08:08 48.82074 9.69815 21905 ft 313 kts 29°
2026-05-05 08:08 48.84002 9.71385 22239 ft 314 kts 29°
2026-05-05 08:08 48.85919 9.72947 22571 ft 315 kts 28°
2026-05-05 08:08 48.87849 9.74591 22783 ft 320 kts 34°
2026-05-05 08:09 48.89456 9.76937 22864 ft 325 kts 52°
2026-05-05 08:09 48.90898 9.79645 22873 ft 334 kts 53°
2026-05-05 08:09 48.92355 9.82409 22868 ft 336 kts 53°
2026-05-05 08:09 48.93801 9.85146 22868 ft 335 kts 53°
2026-05-05 08:10 48.95261 9.87903 22869 ft 335 kts 53°
2026-05-05 08:10 48.96717 9.90652 22865 ft 334 kts 52°
2026-05-05 08:10 48.98176 9.93404 22870 ft 333 kts 52°
2026-05-05 08:10 48.99612 9.96114 22867 ft 332 kts 52°
2026-05-05 08:11 49.01070 9.98865 22867 ft 332 kts 52°
2026-05-05 08:11 49.02508 10.01582 22868 ft 331 kts 52°
2026-05-05 08:11 49.03957 10.04320 22867 ft 331 kts 52°
2026-05-05 08:11 49.05385 10.07020 22866 ft 331 kts 52°
2026-05-05 08:12 49.06838 10.09769 22866 ft 331 kts 52°
2026-05-05 08:12 49.08270 10.12481 22865 ft 330 kts 52°
2026-05-05 08:12 49.09706 10.15203 22868 ft 330 kts 52°
2026-05-05 08:12 49.11151 10.17946 22860 ft 330 kts 52°
2026-05-05 08:13 49.12582 10.20663 22865 ft 330 kts 52°
2026-05-05 08:13 49.14019 10.23381 22863 ft 330 kts 51°
2026-05-05 08:13 49.15575 10.25955 22861 ft 331 kts 46°
2026-05-05 08:13 49.17186 10.28439 22865 ft 331 kts 46°
2026-05-05 08:14 49.18818 10.30955 22859 ft 331 kts 46°
2026-05-05 08:14 49.20424 10.33435 22862 ft 331 kts 46°
2026-05-05 08:14 49.22048 10.35949 22860 ft 331 kts 46°
2026-05-05 08:14 49.23660 10.38448 22863 ft 331 kts 46°
2026-05-05 08:15 49.25271 10.40923 22859 ft 331 kts 45°
2026-05-05 08:15 49.26913 10.43421 22858 ft 332 kts 45°
2026-05-05 08:15 49.28537 10.45895 22858 ft 332 kts 45°
2026-05-05 08:15 49.30181 10.48405 22866 ft 332 kts 45°
2026-05-05 08:16 49.31805 10.50888 22865 ft 332 kts 45°
2026-05-05 08:16 49.33422 10.53363 22863 ft 332 kts 45°
2026-05-05 08:16 49.35073 10.55895 22865 ft 333 kts 45°
2026-05-05 08:16 49.36689 10.58391 22864 ft 333 kts 45°
2026-05-05 08:17 49.38312 10.60910 22864 ft 333 kts 45°
2026-05-05 08:17 49.39936 10.63435 22862 ft 333 kts 45°
2026-05-05 08:17 49.41562 10.65976 22770 ft 334 kts 47°
2026-05-05 08:17 49.42838 10.68893 22232 ft 328 kts 72°
2026-05-05 08:18 49.43099 10.72269 21873 ft 319 kts 97°
2026-05-05 08:18 49.42843 10.75630 21431 ft 319 kts 101°
2026-05-05 08:18 49.42538 10.78975 20983 ft 319 kts 101°
2026-05-05 08:18 49.42221 10.82344 20533 ft 320 kts 101°
2026-05-05 08:19 49.41901 10.85710 20075 ft 319 kts 101°
2026-05-05 08:19 49.41579 10.89079 19613 ft 316 kts 101°
2026-05-05 08:19 49.41265 10.92360 19162 ft 313 kts 101°
2026-05-05 08:19 49.40945 10.95664 18715 ft 311 kts 101°
2026-05-05 08:20 49.40632 10.98894 18277 ft 308 kts 101°
2026-05-05 08:20 49.40315 11.02148 17838 ft 306 kts 101°
2026-05-05 08:20 49.40003 11.05326 17412 ft 304 kts 101°
2026-05-05 08:20 49.39690 11.08513 16981 ft 302 kts 101°
2026-05-05 08:21 49.39375 11.11711 16547 ft 300 kts 101°
2026-05-05 08:21 49.39064 11.14857 16118 ft 299 kts 101°
2026-05-05 08:21 49.38755 11.17958 15695 ft 298 kts 101°
2026-05-05 08:21 49.38444 11.21072 15274 ft 297 kts 101°
2026-05-05 08:22 49.38132 11.24192 14847 ft 296 kts 101°
2026-05-05 08:22 49.37821 11.27296 14422 ft 294 kts 101°
2026-05-05 08:22 49.37511 11.30374 14004 ft 293 kts 101°
2026-05-05 08:22 49.37200 11.33460 13584 ft 291 kts 101°
2026-05-05 08:23 49.36894 11.36490 13171 ft 291 kts 101°
2026-05-05 08:23 49.36583 11.39537 12754 ft 292 kts 101°
2026-05-05 08:23 49.36269 11.42620 12331 ft 292 kts 101°
2026-05-05 08:23 49.35958 11.45664 11917 ft 291 kts 101°
2026-05-05 08:24 49.35643 11.48741 11497 ft 291 kts 101°
2026-05-05 08:24 49.35330 11.51789 11079 ft 290 kts 101°
2026-05-05 08:24 49.35042 11.54840 10639 ft 288 kts 97°
2026-05-05 08:24 49.35356 11.57810 10164 ft 289 kts 67°
2026-05-05 08:25 49.36656 11.60124 9710 ft 289 kts 34°
2026-05-05 08:25 49.38511 11.61192 9281 ft 286 kts 12°
2026-05-05 08:25 49.40430 11.61752 8853 ft 283 kts
2026-05-05 08:25 49.42350 11.61577 8377 ft 276 kts 340°
2026-05-05 08:26 49.43852 11.59899 7921 ft 267 kts 306°
2026-05-05 08:26 49.44558 11.57318 7487 ft 259 kts 282°
2026-05-05 08:26 49.44933 11.54678 7057 ft 255 kts 280°
2026-05-05 08:26 49.45273 11.51991 6608 ft 253 kts 279°
2026-05-05 08:27 49.45581 11.49386 6172 ft 250 kts 279°
2026-05-05 08:27 49.45880 11.46772 5727 ft 248 kts 279°
2026-05-05 08:27 49.46165 11.44186 5281 ft 244 kts 279°
2026-05-05 08:27 49.46442 11.41628 4835 ft 241 kts 279°
2026-05-05 08:28 49.46719 11.39121 4393 ft 238 kts 280°
2026-05-05 08:28 49.46983 11.36614 4126 ft 239 kts 279°
2026-05-05 08:28 49.47244 11.34099 4028 ft 235 kts 279°
2026-05-05 08:28 49.47482 11.31712 3912 ft 223 kts 279°
2026-05-05 08:29 49.47718 11.29352 3578 ft 221 kts 280°
2026-05-05 08:29 49.47945 11.27090 3268 ft 213 kts 280°
2026-05-05 08:29 49.48166 11.24874 2975 ft 203 kts 280°
2026-05-05 08:30 49.48590 11.20707 2506 ft 195 kts 280°
2026-05-05 08:30 49.48791 11.18675 2228 ft 185 kts 279°
2026-05-05 08:30 49.48971 11.16843 1993 ft 163 kts 279°
2026-05-05 08:30 49.49142 11.15152 1806 ft 158 kts 280°
2026-05-05 08:31 49.49309 11.13507 1593 ft 154 kts 279°
2026-05-05 08:31 49.49462 11.11933 1389 ft 144 kts 279°
2026-05-05 08:31 49.49609 11.10459 1217 ft 137 kts 279°
2026-05-05 08:31 49.49755 11.08991 1057 ft 137 kts 279°
2026-05-05 08:32 49.49870 11.07849 1052 ft 81 kts 277°
2026-05-05 08:32 49.49922 11.07239 1052 ft 29 kts 280°
2026-05-05 08:32 49.49924 11.07037 1052 ft 16 kts 221°
2026-05-05 08:32 49.49829 11.07046 1051 ft 11 kts 161°
2026-05-05 08:33 49.49761 11.07096 1051 ft 10 kts 131°
2026-05-05 08:33 49.49737 11.07204 1052 ft 12 kts 98°
2026-05-05 08:33 49.49723 11.07349 1052 ft 15 kts 98°
2026-05-05 08:33 49.49707 11.07516 1052 ft 15 kts 98°
2026-05-05 08:34 49.49693 11.07665 1052 ft 13 kts 98°
2026-05-05 08:34 49.49656 11.07767 1052 ft 11 kts 170°
2026-05-05 08:34 49.49588 11.07792 1052 ft 10 kts 121°
2026-05-05 08:34 49.49574 11.07893 1052 ft 9 kts 98°
2026-05-05 08:35 49.49564 11.07990 1052 ft 7 kts 98°
2026-05-05 08:35 49.49540 11.08042 1052 ft 4 kts 158°
2026-05-05 08:35 49.49505 11.08045 1052 ft 2 kts 186°
2026-05-05 08:35 49.49498 11.08044 1052 ft 0 kts 186°